SHT5X EGAC-EGLL

Flight info

Callsign SHT5X
Flight time 0h 59m
Altitude 33000
Route DUFFY L10 RINGA Q39 BABGU DCT ETIGA DCT INKOB Q39 NOMSU UQ4 WAL UY53 NUGRA
Aircraft A320/M-SDE3FGHIRWY/LB1

Departure

Time 2026-04-30 12:21
Airport George Best Belfast City Airport (EGAC)

Arrival

Time 2026-04-30 13:20
Airport London Heathrow Airport (EGLL)
Time Latitude Longitude Altitude Speed Heading
2026-04-30 11:58 54.61462 -5.87188 21 ft 0 kts 155°
2026-04-30 12:15 54.61468 -5.87193 21 ft 4 kts 155°
2026-04-30 12:16 54.61489 -5.87209 21 ft 3 kts 156°
2026-04-30 12:16 54.61514 -5.87222 23 ft 4 kts 181°
2026-04-30 12:16 54.61539 -5.87213 22 ft 4 kts 211°
2026-04-30 12:16 54.61548 -5.87203 24 ft 1 kts 215°
2026-04-30 12:17 54.61549 -5.87202 24 ft 0 kts 215°
2026-04-30 12:18 54.61540 -5.87213 22 ft 4 kts 215°
2026-04-30 12:18 54.61505 -5.87256 22 ft 8 kts 215°
2026-04-30 12:19 54.61451 -5.87320 21 ft 11 kts 214°
2026-04-30 12:19 54.61394 -5.87426 21 ft 13 kts 233°
2026-04-30 12:19 54.61309 -5.87534 19 ft 18 kts 214°
2026-04-30 12:19 54.61194 -5.87670 16 ft 22 kts 214°
2026-04-30 12:20 54.61087 -5.87808 19 ft 12 kts 235°
2026-04-30 12:20 54.61106 -5.87964 18 ft 15 kts 303°
2026-04-30 12:20 54.61163 -5.88026 18 ft 7 kts 33°
2026-04-30 12:20 54.61177 -5.88009 20 ft 10 kts 34°
2026-04-30 12:21 54.61468 -5.87663 12 ft 89 kts 34°
2026-04-30 12:21 54.62140 -5.86850 35 ft 143 kts 44°
2026-04-30 12:21 54.62951 -5.85867 669 ft 141 kts 39°
2026-04-30 12:21 54.63757 -5.84909 1383 ft 140 kts 43°
2026-04-30 12:22 54.64498 -5.83838 1935 ft 137 kts 70°
2026-04-30 12:22 54.64764 -5.82362 2485 ft 126 kts 95°
2026-04-30 12:22 54.64631 -5.80909 3013 ft 121 kts 119°
2026-04-30 12:22 54.64156 -5.79687 3283 ft 132 kts 141°
2026-04-30 12:23 54.63275 -5.78903 3619 ft 155 kts 165°
2026-04-30 12:23 54.62118 -5.79038 3898 ft 185 kts 196°
2026-04-30 12:23 54.60849 -5.79922 4284 ft 209 kts 197°
2026-04-30 12:23 54.59414 -5.80872 4778 ft 233 kts 196°
2026-04-30 12:24 54.57831 -5.81903 5451 ft 250 kts 197°
2026-04-30 12:24 54.56184 -5.82980 6372 ft 255 kts 197°
2026-04-30 12:24 54.54512 -5.84072 7302 ft 258 kts 195°
2026-04-30 12:24 54.52751 -5.84541 8204 ft 257 kts 174°
2026-04-30 12:25 54.51042 -5.83700 9142 ft 259 kts 151°
2026-04-30 12:25 54.49683 -5.81651 10059 ft 265 kts 129°
2026-04-30 12:25 54.48612 -5.78981 10648 ft 280 kts 128°
2026-04-30 12:25 54.47481 -5.76139 10932 ft 302 kts 128°
2026-04-30 12:26 54.46273 -5.73108 11525 ft 311 kts 128°
2026-04-30 12:26 54.45038 -5.70016 12279 ft 315 kts 128°
2026-04-30 12:26 54.43789 -5.66899 13069 ft 318 kts 128°
2026-04-30 12:26 54.42526 -5.63760 13852 ft 321 kts 128°
2026-04-30 12:27 54.41249 -5.60595 14537 ft 324 kts 128°
2026-04-30 12:27 54.39960 -5.57399 15185 ft 327 kts 128°
2026-04-30 12:27 54.38657 -5.54170 15843 ft 330 kts 128°
2026-04-30 12:27 54.37342 -5.50920 16488 ft 333 kts 128°
2026-04-30 12:28 54.36014 -5.47638 17189 ft 335 kts 128°
2026-04-30 12:28 54.34677 -5.44343 17863 ft 338 kts 128°
2026-04-30 12:28 54.33325 -5.41019 18499 ft 341 kts 128°
2026-04-30 12:28 54.31960 -5.37668 19051 ft 345 kts 128°
2026-04-30 12:29 54.30578 -5.34290 19646 ft 348 kts 129°
2026-04-30 12:29 54.29183 -5.30877 20252 ft 350 kts 128°
2026-04-30 12:29 54.27785 -5.27458 20861 ft 351 kts 129°
2026-04-30 12:29 54.26313 -5.24105 21417 ft 353 kts 131°
2026-04-30 12:30 54.24766 -5.20825 21952 ft 355 kts 133°
2026-04-30 12:30 54.23196 -5.17613 22468 ft 358 kts 133°
2026-04-30 12:30 54.21584 -5.14352 22988 ft 360 kts 133°
2026-04-30 12:30 54.19960 -5.11063 23526 ft 363 kts 133°
2026-04-30 12:31 54.18333 -5.07744 24007 ft 366 kts 133°
2026-04-30 12:31 54.16697 -5.04379 24422 ft 369 kts 133°
2026-04-30 12:31 54.15056 -5.00985 24859 ft 372 kts 133°
2026-04-30 12:31 54.13403 -4.97564 25271 ft 375 kts 132°
2026-04-30 12:32 54.11733 -4.94110 25690 ft 378 kts 132°
2026-04-30 12:32 54.10050 -4.90636 26090 ft 381 kts 132°
2026-04-30 12:32 54.08354 -4.87143 26489 ft 385 kts 132°
2026-04-30 12:32 54.06642 -4.83622 26884 ft 388 kts 132°
2026-04-30 12:33 54.03177 -4.76465 27642 ft 395 kts 131°
2026-04-30 12:33 54.01488 -4.72758 28001 ft 398 kts 130°
2026-04-30 12:33 53.99824 -4.68981 28437 ft 400 kts 129°
2026-04-30 12:34 53.98166 -4.65174 28865 ft 403 kts 129°
2026-04-30 12:34 53.96490 -4.61334 29258 ft 405 kts 130°
2026-04-30 12:34 53.94814 -4.57529 29637 ft 408 kts 130°
2026-04-30 12:34 53.93094 -4.53671 30021 ft 411 kts 130°
2026-04-30 12:35 53.91355 -4.49801 30369 ft 414 kts 130°
2026-04-30 12:35 53.89603 -4.45917 30731 ft 416 kts 130°
2026-04-30 12:35 53.87838 -4.42014 31095 ft 418 kts 130°
2026-04-30 12:35 53.86083 -4.38071 31420 ft 420 kts 129°
2026-04-30 12:36 53.84378 -4.34021 31759 ft 423 kts 128°
2026-04-30 12:36 53.82712 -4.29911 32216 ft 422 kts 127°
2026-04-30 12:36 53.81072 -4.25793 32700 ft 421 kts 127°
2026-04-30 12:36 53.79454 -4.21733 33094 ft 422 kts 127°
2026-04-30 12:37 53.76195 -4.13662 33189 ft 406 kts 128°
2026-04-30 12:37 53.73005 -4.05919 33190 ft 399 kts 128°
2026-04-30 12:38 53.69813 -3.98248 33190 ft 399 kts 128°
2026-04-30 12:38 53.66631 -3.90597 33189 ft 398 kts 128°
2026-04-30 12:39 53.63452 -3.82970 33190 ft 397 kts 128°
2026-04-30 12:39 53.60273 -3.75368 33193 ft 397 kts 128°
2026-04-30 12:40 53.57090 -3.67767 33202 ft 397 kts 128°
2026-04-30 12:40 53.53898 -3.60175 33198 ft 397 kts 128°
2026-04-30 12:41 53.50740 -3.52671 33229 ft 395 kts 128°
2026-04-30 12:41 53.47568 -3.45153 33238 ft 394 kts 126°
2026-04-30 12:42 53.45168 -3.36824 33224 ft 398 kts 117°
2026-04-30 12:42 53.42999 -3.28284 33228 ft 398 kts 117°
2026-04-30 12:43 53.40809 -3.19784 33226 ft 397 kts 117°
2026-04-30 12:43 53.38343 -3.11555 33228 ft 392 kts 128°
2026-04-30 12:44 53.35122 -3.04277 33229 ft 391 kts 129°
2026-04-30 12:44 53.31857 -2.96948 33230 ft 390 kts 129°
2026-04-30 12:45 53.28609 -2.89694 33229 ft 389 kts 130°
2026-04-30 12:45 53.25363 -2.82452 33232 ft 389 kts 129°
2026-04-30 12:46 53.22142 -2.75263 33241 ft 389 kts 130°
2026-04-30 12:46 53.18871 -2.67999 33247 ft 389 kts 130°
2026-04-30 12:47 53.15632 -2.60832 33245 ft 390 kts 130°
2026-04-30 12:47 53.12390 -2.53591 33207 ft 390 kts 128°
2026-04-30 12:48 53.09324 -2.46103 33215 ft 392 kts 126°
2026-04-30 12:48 53.06293 -2.38527 33217 ft 393 kts 127°
2026-04-30 12:49 53.03034 -2.31254 33216 ft 391 kts 137°
2026-04-30 12:49 52.98704 -2.25885 32949 ft 389 kts 148°
2026-04-30 12:50 52.96413 -2.23489 32687 ft 390 kts 148°
2026-04-30 12:50 52.94891 -2.21899 32518 ft 390 kts 148°
2026-04-30 12:50 52.92599 -2.19503 32254 ft 389 kts 148°
2026-04-30 12:50 52.90313 -2.17112 31996 ft 388 kts 148°
2026-04-30 12:51 52.88036 -2.14733 31738 ft 386 kts 148°
2026-04-30 12:51 52.85769 -2.12367 31486 ft 384 kts 148°
2026-04-30 12:51 52.83512 -2.10016 31231 ft 382 kts 148°
2026-04-30 12:51 52.81267 -2.07678 30985 ft 381 kts 148°
2026-04-30 12:52 52.79033 -2.05354 30732 ft 379 kts 148°
2026-04-30 12:52 52.76803 -2.03040 30484 ft 377 kts 148°
2026-04-30 12:52 52.74585 -2.00740 30239 ft 376 kts 148°
2026-04-30 12:52 52.72374 -1.98446 29948 ft 375 kts 148°
2026-04-30 12:53 52.70165 -1.96158 29658 ft 374 kts 148°
2026-04-30 12:53 52.67964 -1.93880 29377 ft 373 kts 148°
2026-04-30 12:53 52.65767 -1.91612 29094 ft 369 kts 148°
2026-04-30 12:53 52.63611 -1.89388 28667 ft 363 kts 148°
2026-04-30 12:54 52.61485 -1.87197 28241 ft 359 kts 148°
2026-04-30 12:54 52.59383 -1.85034 27811 ft 354 kts 148°
2026-04-30 12:54 52.57304 -1.82895 27392 ft 351 kts 148°
2026-04-30 12:54 52.55245 -1.80777 26982 ft 348 kts 148°
2026-04-30 12:55 52.53199 -1.78676 26596 ft 344 kts 148°
2026-04-30 12:55 52.51201 -1.76634 26198 ft 341 kts 148°
2026-04-30 12:55 52.49196 -1.74584 25827 ft 338 kts 148°
2026-04-30 12:55 52.47211 -1.72556 25454 ft 334 kts 148°
2026-04-30 12:56 52.45248 -1.70556 25087 ft 330 kts 148°
2026-04-30 12:56 52.43302 -1.68573 24726 ft 327 kts 148°
2026-04-30 12:56 52.41383 -1.66615 24360 ft 323 kts 148°
2026-04-30 12:56 52.39482 -1.64680 23975 ft 320 kts 148°
2026-04-30 12:57 52.37595 -1.62761 23573 ft 318 kts 148°
2026-04-30 12:57 52.35721 -1.60855 23187 ft 316 kts 148°
2026-04-30 12:57 52.33859 -1.58962 22813 ft 314 kts 148°
2026-04-30 12:57 52.32005 -1.57080 22436 ft 313 kts 148°
2026-04-30 12:58 52.30161 -1.55214 22122 ft 311 kts 148°
2026-04-30 12:58 52.28323 -1.53361 21733 ft 309 kts 148°
2026-04-30 12:58 52.26495 -1.51522 21356 ft 308 kts 148°
2026-04-30 12:58 52.24683 -1.49696 20965 ft 306 kts 148°
2026-04-30 12:59 52.22879 -1.47874 20553 ft 304 kts 148°
2026-04-30 12:59 52.21141 -1.45942 19841 ft 312 kts 141°
2026-04-30 12:59 52.19456 -1.43590 19076 ft 323 kts 140°
2026-04-30 12:59 52.17751 -1.41192 18541 ft 324 kts 140°
2026-04-30 13:00 52.16044 -1.38794 17994 ft 323 kts 140°
2026-04-30 13:00 52.14344 -1.36414 17516 ft 321 kts 140°
2026-04-30 13:00 52.12651 -1.34051 17043 ft 319 kts 140°
2026-04-30 13:00 52.10974 -1.31715 16586 ft 316 kts 140°
2026-04-30 13:01 52.09303 -1.29395 16135 ft 314 kts 140°
2026-04-30 13:01 52.07646 -1.27093 15673 ft 312 kts 140°
2026-04-30 13:01 52.06005 -1.24811 15328 ft 308 kts 140°
2026-04-30 13:01 52.04404 -1.22590 15239 ft 295 kts 140°
2026-04-30 13:02 52.02901 -1.20508 15213 ft 281 kts 140°
2026-04-30 13:02 52.01448 -1.18497 15213 ft 268 kts 140°
2026-04-30 13:02 52.00064 -1.16586 15215 ft 256 kts 140°
2026-04-30 13:02 51.98720 -1.14731 15214 ft 253 kts 140°
2026-04-30 13:03 51.97380 -1.12885 15214 ft 252 kts 140°
2026-04-30 13:03 51.96044 -1.11045 15214 ft 252 kts 140°
2026-04-30 13:03 51.94698 -1.09191 14898 ft 259 kts 140°
2026-04-30 13:03 51.93322 -1.07293 14662 ft 257 kts 140°
2026-04-30 13:04 51.91980 -1.05442 14500 ft 250 kts 139°
2026-04-30 13:04 51.90660 -1.03626 14278 ft 248 kts 139°
2026-04-30 13:04 51.89347 -1.01822 14018 ft 247 kts 139°
2026-04-30 13:04 51.88040 -1.00026 13733 ft 246 kts 139°
2026-04-30 13:05 51.86738 -0.98240 13449 ft 245 kts 139°
2026-04-30 13:05 51.85502 -0.96372 13151 ft 243 kts 130°
2026-04-30 13:05 51.84607 -0.94038 12769 ft 247 kts 117°
2026-04-30 13:06 51.83100 -0.89036 12146 ft 247 kts 118°
2026-04-30 13:06 51.82341 -0.86553 11897 ft 245 kts 118°
2026-04-30 13:06 51.81597 -0.84117 11631 ft 244 kts 118°
2026-04-30 13:06 51.80837 -0.81631 11337 ft 243 kts 118°
2026-04-30 13:07 51.80097 -0.79220 11090 ft 242 kts 118°
2026-04-30 13:07 51.79350 -0.76787 10826 ft 241 kts 118°
2026-04-30 13:07 51.78606 -0.74367 10556 ft 240 kts 118°
2026-04-30 13:07 51.77866 -0.71961 10308 ft 239 kts 118°
2026-04-30 13:08 51.77127 -0.69568 10035 ft 237 kts 118°
2026-04-30 13:08 51.76392 -0.67185 9750 ft 237 kts 118°
2026-04-30 13:08 51.75661 -0.64816 9476 ft 235 kts 118°
2026-04-30 13:08 51.74930 -0.62453 9194 ft 235 kts 118°
2026-04-30 13:09 51.74201 -0.60098 8907 ft 234 kts 118°
2026-04-30 13:09 51.73476 -0.57752 8679 ft 233 kts 118°
2026-04-30 13:09 51.72564 -0.55605 8345 ft 231 kts 141°
2026-04-30 13:09 51.71135 -0.54571 8178 ft 227 kts 171°
2026-04-30 13:10 51.69577 -0.54964 7827 ft 233 kts 201°
2026-04-30 13:10 51.68176 -0.56328 7522 ft 236 kts 209°
2026-04-30 13:10 51.66827 -0.57842 7258 ft 236 kts 210°
2026-04-30 13:10 51.65488 -0.59368 7008 ft 235 kts 210°
2026-04-30 13:11 51.64158 -0.60887 6763 ft 234 kts 210°
2026-04-30 13:11 51.62849 -0.62377 6504 ft 233 kts 210°
2026-04-30 13:11 51.61517 -0.63904 6230 ft 232 kts 212°
2026-04-30 13:11 51.60491 -0.65892 5935 ft 242 kts 240°
2026-04-30 13:12 51.59970 -0.68501 5591 ft 247 kts 250°
2026-04-30 13:12 51.59563 -0.71182 5267 ft 246 kts 251°
2026-04-30 13:12 51.59177 -0.73866 4979 ft 247 kts 251°
2026-04-30 13:13 51.58351 -0.79090 4663 ft 227 kts 234°
2026-04-30 13:13 51.57331 -0.80813 4529 ft 204 kts 200°
2026-04-30 13:13 51.54673 -0.81740 3980 ft 196 kts 181°
2026-04-30 13:14 51.53314 -0.82001 3732 ft 196 kts 181°
2026-04-30 13:14 51.51956 -0.82258 3451 ft 197 kts 180°
2026-04-30 13:14 51.49612 -0.80811 3022 ft 184 kts 127°
2026-04-30 13:15 51.48958 -0.79048 2996 ft 184 kts 118°
2026-04-30 13:15 51.47778 -0.75444 3014 ft 174 kts 109°
2026-04-30 13:15 51.47615 -0.73542 3016 ft 173 kts 92°
2026-04-30 13:16 51.47629 -0.71635 2881 ft 169 kts 92°
2026-04-30 13:16 51.47641 -0.69751 2690 ft 169 kts 92°
2026-04-30 13:16 51.47653 -0.67881 2465 ft 166 kts 92°
2026-04-30 13:17 51.47674 -0.64205 2033 ft 166 kts 91°
2026-04-30 13:17 51.47684 -0.62362 1820 ft 159 kts 91°
2026-04-30 13:17 51.47701 -0.59163 1435 ft 134 kts 91°
2026-04-30 13:18 51.47709 -0.57691 1230 ft 130 kts 92°
2026-04-30 13:18 51.47721 -0.54772 890 ft 132 kts 91°
2026-04-30 13:18 51.47732 -0.53316 785 ft 132 kts 92°
2026-04-30 13:19 51.47731 -0.51835 560 ft 131 kts 89°
2026-04-30 13:19 51.47736 -0.50381 334 ft 131 kts 87°
2026-04-30 13:19 51.47748 -0.48953 196 ft 128 kts 88°
2026-04-30 13:19 51.47755 -0.47551 91 ft 118 kts 88°
2026-04-30 13:20 51.47760 -0.46451 89 ft 79 kts 90°
2026-04-30 13:20 51.47761 -0.45725 84 ft 54 kts 90°
2026-04-30 13:20 51.47760 -0.45308 86 ft 14 kts 92°
2026-04-30 13:20 51.47709 -0.45182 89 ft 15 kts 160°
2026-04-30 13:21 51.47618 -0.45182 86 ft 11 kts 206°
2026-04-30 13:21 51.47598 -0.45304 86 ft 13 kts 270°
2026-04-30 13:21 51.47597 -0.45470 86 ft 16 kts 269°
2026-04-30 13:22 51.47594 -0.45891 89 ft 21 kts 270°
2026-04-30 13:22 51.47594 -0.46144 89 ft 24 kts 270°
2026-04-30 13:22 51.47593 -0.46581 86 ft 17 kts 270°
2026-04-30 13:23 51.47591 -0.46785 86 ft 19 kts 268°
2026-04-30 13:23 51.47581 -0.47231 86 ft 21 kts 270°
2026-04-30 13:24 51.47580 -0.47733 90 ft 24 kts 270°
2026-04-30 13:24 51.47576 -0.48125 86 ft 12 kts 269°
2026-04-30 13:25 51.47577 -0.48396 86 ft 13 kts 271°
2026-04-30 13:25 51.47438 -0.48475 86 ft 13 kts 179°
2026-04-30 13:26 51.47361 -0.48574 86 ft 2 kts 269°
2026-04-30 13:26 51.47361 -0.48586 86 ft 0 kts 269°